Torna al catalogo

HUNITY-1

AttivoScienzaSSO
NORAD 66670·PAYLOAD·🇭🇺 Hungary

Lanciato Nov 28, 2025 da Vandenberg Space Force Base

Loading…

Prossimi Passaggi (prossime 24 ore)

TLE

AggiornatoSource: Space-Track

Epoca: Sep 14, 2026, 10:45 UTC

1 66670U 25276E   26257.44850457  .00022312  00000-0  73899-3 0  9995
2 66670  97.3986 331.1978 0006431  65.4197 294.7714 15.31293692 44123

Traccia HUNITY-1 in tempo reale con AllMySat

Download on the App Store